CW1890 Weather Reports


Display with metric or nautical units.
time (UTC)temp
F
wind
direction
speed
MPH
gust
MPH
rain 1hr
in
rain 24hr
in
rain mn
in
humidity
%
barometer
mb
20210615061604 53 360 0.0 0.0 0.00 0.00 0.00 72 1021.9
20210615060050 53 360 0.0 0.0 0.00 0.00 0.00 72 1021.9
20210615054548 54 360 0.0 0.0 0.00 0.00 0.00 73 1021.8
20210615053044 54 360 0.0 0.0 0.00 0.00 0.00 74 1021.9
20210615051601 55 360 0.0 0.0 0.00 0.00 0.00 74 1021.8
20210615050101 55 360 0.0 0.0 0.00 0.00 0.00 75 1021.7
20210615044539 56 360 0.0 0.0 0.00 0.00 0.00 75 1021.7
20210615043048 57 360 0.0 0.0 0.00 0.00 0.00 76 1021.7
20210615041517 58 360 0.0 0.0 0.00 0.00 0.00 76 1021.6
20210615040012 59 360 0.0 0.0 0.00 0.00 0.00 76 1021.7
20210615034621 59 360 0.0 0.0 0.00 0.00 0.00 76 1021.6
20210615033111 60 360 0.0 0.0 0.00 0.00 0.00 75 1021.4
20210615031631 61 360 0.0 0.0 0.00 0.00 0.00 74 1021.4
20210615030113 61 360 0.0 0.0 0.00 0.00 0.00 72 1021.4
20210615024620 62 360 0.0 0.0 0.00 0.00 0.00 71 1021.2
20210615023042 63 360 0.0 0.0 0.00 0.00 0.00 70 1021.0
20210615021654 64 360 0.0 0.0 0.00 0.00 0.00 68 1020.9
20210615020032 64 360 0.0 0.0 0.00 0.00 0.00 66 1021.0
20210615014540 65 34 0.0 0.0 0.00 0.00 0.00 64 1020.8
20210615013058 66 28 0.0 9.0 0.00 0.00 0.00 62 1020.7
20210615011530 66 21 3.0 8.0 0.00 0.00 0.00 61 1020.6
20210615010013 67 23 4.0 11.0 0.00 0.00 0.00 59 1020.6
20210615004657 67 22 3.0 10.0 0.00 0.00 0.00 59 1020.6
20210615003138 67 59 0.0 14.0 0.00 0.00 0.00 58 1020.6
20210615001638 67 57 7.0 12.0 0.00 0.00 0.00 57 1020.5
20210615000230 67 28 2.0 11.0 0.00 0.00 0.00 57 1020.5
20210614234647 67 19 5.0 11.0 0.00 0.00 0.00 56 1020.4
20210614233130 67 82 0.0 11.0 0.00 0.00 0.00 58 1020.4
20210614231813 67 33 3.0 13.0 0.00 0.00 0.00 56 1020.4
20210614230150 67 92 0.0 14.0 0.00 0.00 0.00 57 1020.2
20210614224647 68 48 5.0 15.0 0.00 0.00 0.00 55 1020.2
20210614223118 68 326 0.0 15.0 0.00 0.00 0.00 55 1020.1
20210614221547 68 9 1.0 13.0 0.00 0.00 0.00 56 1020.0
20210614220048 68 36 6.0 14.0 0.00 0.00 0.00 53 1020.1
20210614214547 68 24 4.0 13.0 0.00 0.00 0.00 55 1020.1
20210614213055 68 23 4.0 11.0 0.00 0.00 0.00 55 1019.9
20210614211544 69 59 1.0 16.0 0.00 0.00 0.00 55 1019.9
20210614210046 68 16 1.0 12.0 0.00 0.00 0.00 56 1019.7
20210614204522 69 18 2.0 11.0 0.00 0.00 0.00 54 1019.6
20210614203047 69 29 2.0 14.0 0.00 0.00 0.00 55 1019.5
20210614201636 68 69 4.0 20.0 0.00 0.00 0.00 58 1019.5
20210614200156 68 14 1.0 14.0 0.00 0.00 0.00 58 1019.4
20210614194632 69 50 6.0 16.0 0.00 0.00 0.00 55 1019.3
20210614193206 69 38 2.0 11.0 0.00 0.00 0.00 56 1019.2
20210614191716 69 5 5.0 22.0 0.00 0.00 0.00 58 1018.9
20210614190241 70 11 4.0 15.0 0.00 0.00 0.00 57 1018.8
20210614184802 69 23 2.0 14.0 0.00 0.00 0.00 55 1018.6
20210614183140 70 313 1.0 18.0 0.00 0.00 0.00 57 1018.6
20210614181608 70 291 3.0 21.0 0.00 0.00 0.00 55 1018.5
20210614180215 71 5 6.0 14.0 0.00 0.00 0.00 53 1018.5
20210614174535 70 331 3.0 15.0 0.00 0.00 0.00 57 1018.2
20210614173056 70 315 4.0 14.0 0.00 0.00 0.00 56 1018.2
20210614171603 70 333 2.0 16.0 0.00 0.00 0.00 56 1018.2
20210614170037 69 344 6.0 18.0 0.00 0.00 0.00 56 1018.1
20210614164540 70 322 6.0 16.0 0.00 0.09 0.00 55 1017.8
20210614163120 70 14 4.0 21.0 0.00 0.09 0.00 54 1017.8
20210614161515 70 18 7.0 19.0 0.00 0.09 0.00 53 1017.8
20210614160021 70 333 6.0 19.0 0.00 0.09 0.00 53 1017.7
20210614154514 70 323 4.0 19.0 0.00 0.09 0.00 52 1017.7
20210614153013 70 331 4.0 21.0 0.00 0.09 0.00 51 1017.4
20210614151524 70 350 7.0 24.0 0.00 0.09 0.00 49 1017.3
20210614150009 69 325 8.0 21.0 0.00 0.09 0.00 50 1017.3
20210614144512 69 330 9.0 19.0 0.00 0.10 0.00 50 1017.2
20210614143126 69 355 6.0 16.0 0.00 0.10 0.00 55 1017.2
20210614143010 69 298 5.0 16.0 0.00 0.10 0.00 55 1017.2
20210614141655 69 333 8.0 18.0 0.00 0.10 0.00 55 1017.3
20210614140208 68 333 4.0 19.0 0.00 0.10 0.00 60 1017.1
20210614134702 68 333 7.0 16.0 0.00 0.11 0.00 59 1017.1
20210614133059 68 313 5.0 12.0 0.00 0.11 0.00 60 1017.1
20210614131639 67 315 4.0 14.0 0.00 0.11 0.00 62 1017.1
20210614130100 66 284 6.0 14.0 0.00 0.11 0.00 64 1017.1
20210614124703 65 336 6.0 14.0 0.00 0.11 0.00 66 1017.0
20210614123038 64 298 6.0 12.0 0.00 0.11 0.00 68 1017.1
20210614121602 62 294 3.0 10.0 0.00 0.11 0.00 73 1017.2
20210614120032 60 306 0.0 0.0 0.00 0.11 0.00 75 1017.1
20210614114506 59 306 0.0 0.0 0.00 0.11 0.00 75 1017.1
20210614113006 56 306 0.0 0.0 0.00 0.11 0.00 75 1017.0
20210614111504 55 306 0.0 0.0 0.00 0.11 0.00 74 1017.1
20210614110002 54 306 0.0 0.0 0.00 0.11 0.00 74 1016.8
20210614104644 53 306 0.0 0.0 0.00 0.11 0.00 73 1016.6
20210614103226 53 306 0.0 0.0 0.00 0.11 0.00 74 1016.6
20210614101630 54 306 0.0 0.0 0.00 0.11 0.00 74 1016.4
20210614100103 54 306 0.0 0.0 0.00 0.11 0.00 74 1016.2
20210614094634 54 306 0.0 0.0 0.00 0.11 0.00 74 1016.1
20210614093112 54 306 0.0 0.0 0.00 0.11 0.00 74 1016.1
20210614091558 54 306 0.0 0.0 0.00 0.11 0.00 74 1016.1
20210614090103 54 306 0.0 0.0 0.00 0.11 0.00 74 1016.0
20210614084609 55 306 0.0 0.0 0.00 0.11 0.00 75 1015.8
20210614083041 55 306 0.0 0.0 0.00 0.11 0.00 75 1015.8
20210614081639 56 306 0.0 0.0 0.00 0.11 0.00 76 1015.7
20210614080109 56 306 0.0 0.0 0.00 0.11 0.00 76 1015.7
20210614074540 56 306 0.0 0.0 0.00 0.11 0.00 76 1015.7
20210614073021 56 306 0.0 0.0 0.00 0.11 0.00 75 1015.5
20210614071521 56 306 0.0 0.0 0.00 0.11 0.00 76 1015.4
20210614070012 57 306 0.0 0.0 0.00 0.11 0.00 75 1015.3
20210614064559 57 306 0.0 0.0 0.00 0.11 0.00 75 1015.3
20210614063042 57 306 0.0 0.0 0.00 0.11 0.00 75 1015.2